Weather in Zhukovo

Russia / Tver Oblast     57°24′10″N   33°50′10″E
temp.,
°C
wind,
m/s
gust,
m/s
humid.,
%
clouds,
%
prec.,
mm/h
press.,
hPa
HPBL,
m
9 march, tue
tue900:00−14nnw2797100 0.1 1014277
03:00−16nw2499100 0.1 1016103
06:00−17nnw249884 0.0 1017139
09:00−17n259179 0.0 1019268
12:00−13nnw247376 0.0 1020585
15:00−11nnw356848 0.0 1021876
18:00−13n258451 0.0 1022175
21:00−17nne129455 0.0 102423
10 march, wed
wed1000:00−18ene259741 0.0 1026109
03:00−20e249939 0.0 1027113
06:00−22ene24980 0.0 1028126
09:00−21ene35900 0.0 1030246
12:00−16e36720 0.0 1031453
15:00−13e34640 0.0 1031707
18:00−14ese22800 0.0 103155
21:00−18se12884 0.0 103220
11 march, thu
thu1100:00−19sse128812 0.0 103220
03:00−19sse22846 0.0 103331
06:00−20s25840 0.0 1032107
09:00−17s37720 0.0 1032232
12:00−11s48600 0.0 1030493
15:00−8s476010 0.0 1029634
18:00−10s497522 0.0 1027435
21:00−13s4118611 0.0 1027340
12 march, fri
fri1200:00−13ssw411910 0.0 1026336
03:00−13ssw4129212 0.0 1025344
06:00−13s5149111 0.0 1023356
09:00−11s614756 0.0 1021527
12:00−6s714660 0.0 1019722
15:00−4s714660 0.0 1017959
18:00−6s715770 0.0 1016982
21:00−6s7158350 0.0 10151045
13 march, sat
sat1300:00−7s71489100 0.4 10131010
03:00−7s61390100 1.1 1011906
06:00−6s61391100 0.3 1010666
09:00−4ssw51188100 0.4 1010466
12:000ssw5119197 0.1 1010698
15:00+1ssw5119099 0.1 1010905
18:00+1ssw51288100 0.0 1009854
21:00+1ssw51288100 0.0 1009896